Big Rapids, MI

10:07 PM EST on December 10, 2019 (GMT -0500)
Roben-Hood

Weather History for KRQB - August, 2019

Change the Weather History Date:

Wednesday, August 7, 2019

  Actual Average Record
Temperature  
Mean Temperature 70 °F -  
Max Temperature 83 °F 81 °F 102 °F (2001)
Min Temperature 56 °F 55 °F 38 °F (1989)
Cooling Degree Days 4    
Growing Degree Days 20 (Base 50)    
Moisture  
Dew Point 60 °F    
Average Humidity 75    
Maximum Humidity 97    
Minimum Humidity 40    
Precipitation  
Precipitation 0.00 in - - ()
Sea Level Pressure  
Sea Level Pressure 29.81 in    
Wind  
Wind Speed 3 mph (WSW)    
Max Wind Speed 14 mph    
Max Gust Speed 21 mph    
Visibility 10 miles    
Events Rain    
Averages and records for this station are not official NWS values.
T = Trace of Precipitation, MM = Missing Value Source: NWS Daily Summary

Daily Weather History Graph

Daily Weather History Graph

Search for Another Location

Airport or City:

Astronomy

Aug. 07, 2019 Rise Set
Actual Time 6:37 AM EDT 8:57 PM EDT
Civil Twilight 6:05 AM EDT 9:29 PM EDT
Nautical Twilight 5:25 AM EDT 10:09 PM EDT
Astronomical Twilight 4:40 AM EDT 10:53 PM EDT
Moon 2:23 PM EDT (8/7) 12:30 AM EDT (8/7)
Length of Visible Light 15h 24m
Length of Day
14h 20m
Waxing Crescent, 49% of the Moon is Illuminated
Aug 7
Waxing Crescent
Aug 7
First Quarter
Aug 15
Full
Aug 23
Last Quarter
Aug 30
New

Hourly Weather History & Observations

Time (EDT) Temp. Heat Index Dew Point Humidity Pressure Visibility Wind Dir Wind Speed Gust Speed Precip Events Conditions
12:16 AM 62.6 °F - 61.0 °F 94% 29.83 in 10.0 mi West 4.6 mph - N/A   Clear
12:35 AM 62.2 °F - 61.0 °F 96% 29.82 in 10.0 mi West 3.5 mph - N/A   Clear
12:55 AM 63.0 °F - 61.7 °F 96% 29.83 in 10.0 mi North 3.5 mph - N/A   Clear
1:19 AM 61.0 °F - 59.5 °F 95% 29.82 in 10.0 mi Calm Calm - N/A   Clear
1:36 AM 60.8 °F - 59.5 °F 96% 29.82 in 10.0 mi Calm Calm - N/A   Clear
1:55 AM 60.3 °F - 59.0 °F 96% 29.83 in 10.0 mi Calm Calm - N/A   Clear
1:56 AM 60.3 °F - 59.0 °F 96% 29.82 in 10.0 mi Calm Calm - N/A   Clear
2:15 AM 59.0 °F - 57.9 °F 96% 29.83 in 7.0 mi Calm Calm - N/A   Clear
2:39 AM 59.5 °F - 58.5 °F 96% 29.83 in 10.0 mi Calm Calm - N/A   Clear
2:57 AM 59.0 °F - 57.9 °F 96% 29.83 in 7.0 mi Calm Calm - N/A   Mostly Cloudy
3:15 AM 58.8 °F - 57.9 °F 97% 29.84 in 10.0 mi Calm Calm - N/A   Overcast
3:16 AM 58.6 °F - 57.7 °F 97% 29.84 in 10.0 mi Calm Calm - N/A   Overcast
3:35 AM 58.8 °F - 57.7 °F 96% 29.84 in 10.0 mi Calm Calm - N/A   Overcast
3:55 AM 59.4 °F - 58.5 °F 97% 29.83 in 10.0 mi Calm Calm - N/A   Mostly Cloudy
4:00 AM 59.2 °F - 58.1 °F 96% 29.83 in 10.0 mi Calm Calm - N/A   Scattered Clouds
4:18 AM 57.9 °F - 56.8 °F 96% 29.84 in 10.0 mi Calm Calm - N/A   Scattered Clouds
4:36 AM 58.5 °F - 57.4 °F 96% 29.83 in 10.0 mi Calm Calm - N/A   Scattered Clouds
4:55 AM 58.5 °F - 57.4 °F 96% 29.83 in 10.0 mi Calm Calm - N/A   Clear
4:56 AM 58.3 °F - 57.4 °F 97% 29.83 in 10.0 mi Calm Calm - N/A   Clear
5:15 AM 58.3 °F - 57.2 °F 96% 29.84 in 10.0 mi Calm Calm - N/A   Scattered Clouds
5:16 AM 58.1 °F - 57.0 °F 96% 29.84 in 10.0 mi Calm Calm - N/A   Scattered Clouds
5:38 AM 57.2 °F - 56.3 °F 97% 29.84 in 10.0 mi Calm Calm - N/A   Mostly Cloudy
5:55 AM 57.2 °F - 56.3 °F 97% 29.84 in 10.0 mi Calm Calm - N/A   Scattered Clouds
5:56 AM 57.2 °F - 56.3 °F 97% 29.84 in 10.0 mi Calm Calm - N/A   Scattered Clouds
6:15 AM 57.2 °F - 56.3 °F 97% 29.84 in 10.0 mi Calm Calm - N/A   Clear
6:35 AM 56.5 °F - 55.6 °F 97% 29.84 in 7.0 mi Calm Calm - N/A   Clear
6:58 AM 56.5 °F - 55.6 °F 97% 29.84 in 7.0 mi Calm Calm - N/A   Clear
7:15 AM 56.7 °F - 55.8 °F 97% 29.84 in 7.0 mi Calm Calm - N/A   Clear
7:16 AM 56.7 °F - 55.9 °F 97% 29.84 in 7.0 mi Calm Calm - N/A   Clear
7:35 AM 58.1 °F - 57.4 °F 97% 29.84 in 10.0 mi Calm Calm - N/A   Clear
7:55 AM 59.4 °F - 58.5 °F 97% 29.84 in 10.0 mi Calm Calm - N/A   Clear
8:00 AM 59.9 °F - 58.6 °F 96% 29.84 in 10.0 mi Calm Calm - N/A   Clear
8:18 AM 61.0 °F - 59.9 °F 96% 29.84 in 10.0 mi Calm Calm - N/A   Scattered Clouds
8:36 AM 61.7 °F - 60.1 °F 94% 29.84 in 10.0 mi Calm Calm - N/A   Clear
8:55 AM 63.9 °F - 61.3 °F 91% 29.84 in 10.0 mi Calm Calm - N/A   Clear
8:56 AM 64.0 °F - 61.3 °F 91% 29.83 in 10.0 mi Calm Calm - N/A   Clear
9:15 AM 65.3 °F - 62.4 °F 90% 29.84 in 10.0 mi Calm Calm - N/A   Clear
9:39 AM 68.2 °F - 64.4 °F 88% 29.83 in 10.0 mi Calm Calm - N/A   Clear
9:57 AM 70.2 °F - 65.1 °F 84% 29.84 in 10.0 mi Calm Calm - N/A   Clear
10:15 AM 72.9 °F - 65.8 °F 79% 29.84 in 10.0 mi SSW 4.6 mph - N/A   Clear
10:35 AM 75.9 °F - 60.1 °F 58% 29.84 in 10.0 mi West 8.1 mph - N/A   Clear
10:36 AM 75.9 °F - 59.9 °F 57% 29.84 in 10.0 mi West 8.1 mph - N/A   Clear
10:59 AM 76.3 °F - 61.3 °F 60% 29.84 in 10.0 mi WSW 5.8 mph - N/A   Clear
11:17 AM 77.2 °F - 61.0 °F 57% 29.84 in 10.0 mi West 8.1 mph - N/A   Clear
11:35 AM 77.9 °F - 62.6 °F 59% 29.84 in 10.0 mi SW 5.8 mph - N/A   Clear
11:36 AM 77.9 °F - 62.4 °F 59% 29.84 in 10.0 mi WSW 6.9 mph - N/A   Clear
11:55 AM 78.1 °F - 62.4 °F 58% 29.84 in 10.0 mi SW 5.8 mph - N/A   Clear
12:15 PM 79.0 °F - 61.3 °F 55% 29.84 in 10.0 mi Calm Calm - N/A   Clear
12:38 PM 80.1 °F 81.1 °F 61.3 °F 53% 29.83 in 10.0 mi WSW 9.2 mph - N/A   Clear
12:56 PM 81.1 °F 81.6 °F 59.7 °F 48% 29.83 in 10.0 mi WNW 5.8 mph - N/A   Scattered Clouds
1:15 PM 80.6 °F 80.9 °F 58.3 °F 46% 29.83 in 10.0 mi West 9.2 mph - N/A   Scattered Clouds
1:35 PM 79.9 °F - 56.5 °F 45% 29.82 in 10.0 mi WSW 8.1 mph - N/A   Clear
1:59 PM 81.7 °F 81.2 °F 55.2 °F 40% 29.82 in 10.0 mi WNW 9.2 mph - N/A   Clear
2:17 PM 82.4 °F 81.8 °F 55.8 °F 40% 29.81 in 10.0 mi West 8.1 mph - N/A   Clear
2:35 PM 82.4 °F 81.8 °F 55.8 °F 40% 29.81 in 10.0 mi WSW 5.8 mph - N/A   Scattered Clouds
2:55 PM 81.9 °F 81.6 °F 56.7 °F 42% 29.80 in 10.0 mi SW 6.9 mph - N/A   Clear
2:56 PM 81.9 °F 81.6 °F 56.8 °F 42% 29.80 in 10.0 mi SW 6.9 mph - N/A   Clear
3:19 PM 82.0 °F 81.8 °F 57.2 °F 43% 29.79 in 10.0 mi WSW 8.1 mph - N/A   Scattered Clouds
3:37 PM 83.1 °F 82.9 °F 58.5 °F 43% 29.79 in 10.0 mi WSW 11.5 mph 17.3 mph N/A   Mostly Cloudy
3:55 PM 83.3 °F 82.9 °F 58.3 °F 42% 29.78 in 10.0 mi WSW 11.5 mph - N/A   Mostly Cloudy
3:56 PM 83.3 °F 83.1 °F 58.5 °F 43% 29.78 in 10.0 mi WSW 10.4 mph - N/A   Mostly Cloudy
4:15 PM 82.8 °F 82.7 °F 58.6 °F 44% 29.77 in 10.0 mi WSW 11.5 mph - N/A   Scattered Clouds
4:16 PM 82.6 °F 82.5 °F 58.8 °F 44% 29.77 in 10.0 mi WSW 12.7 mph - N/A   Scattered Clouds
4:35 PM 82.2 °F 82.3 °F 58.6 °F 45% 29.78 in 10.0 mi West 9.2 mph - N/A   Scattered Clouds
4:58 PM 81.0 °F 81.2 °F 58.6 °F 46% 29.78 in 10.0 mi West 9.2 mph - N/A   Mostly Cloudy
5:16 PM 81.7 °F 81.9 °F 59.2 °F 46% 29.78 in 10.0 mi WSW 11.5 mph - N/A   Scattered Clouds
5:35 PM 81.3 °F 81.7 °F 59.4 °F 47% 29.78 in 10.0 mi West 13.8 mph 17.3 mph N/A   Scattered Clouds
5:55 PM 81.5 °F 81.7 °F 59.0 °F 46% 29.78 in 10.0 mi West 11.5 mph 17.3 mph N/A   Clear
6:19 PM 80.1 °F 80.9 °F 59.7 °F 50% 29.78 in 10.0 mi WSW 8.1 mph - N/A   Scattered Clouds
6:36 PM 79.3 °F - 59.9 °F 51% 29.77 in 10.0 mi WSW 11.5 mph - N/A   Clear
6:55 PM 78.3 °F - 61.2 °F 56% 29.77 in 10.0 mi WSW 5.8 mph - N/A   Clear
6:56 PM 78.3 °F - 61.2 °F 56% 29.77 in 10.0 mi WSW 5.8 mph - N/A   Clear
7:15 PM 77.2 °F - 62.6 °F 61% 29.78 in 10.0 mi WSW 4.6 mph - N/A   Clear
7:20 PM 76.6 °F - 62.8 °F 62% 29.79 in 10.0 mi WSW 3.5 mph - N/A   Clear
7:38 PM 76.1 °F - 63.1 °F 64% 29.77 in 10.0 mi SSW 3.5 mph - N/A   Clear
7:56 PM 75.2 °F - 63.0 °F 66% 29.75 in 10.0 mi SSW 8.1 mph - N/A   Clear
8:15 PM 74.5 °F - 63.0 °F 67% 29.76 in 10.0 mi SW 9.2 mph - N/A   Clear
8:16 PM 74.5 °F - 62.8 °F 67% 29.76 in 10.0 mi SSW 10.4 mph - N/A   Clear
8:35 PM 74.3 °F - 62.4 °F 66% 29.76 in 10.0 mi Calm Calm - N/A   Clear
8:36 PM 74.3 °F - 62.4 °F 66% 29.75 in 10.0 mi Calm Calm - N/A   Clear
8:59 PM 73.2 °F - 63.1 °F 71% 29.75 in 10.0 mi Calm Calm - N/A   Clear
9:17 PM 70.3 °F - 65.3 °F 84% 29.76 in 10.0 mi SSW 8.1 mph - N/A   Clear
9:35 PM 71.1 °F - 64.6 °F 80% 29.74 in 10.0 mi SSE 3.5 mph - N/A   Clear
9:55 PM 70.7 °F - 64.4 °F 80% 29.74 in 10.0 mi SSW 11.5 mph - N/A   Scattered Clouds
9:56 PM 70.3 °F - 64.6 °F 82% 29.74 in 10.0 mi SSW 11.5 mph - N/A   Scattered Clouds
10:15 PM 71.6 °F - 63.5 °F 76% 29.74 in 10.0 mi SSW 11.5 mph - N/A   Light Drizzle
10:38 PM 70.2 °F - 64.0 °F 81% 29.77 in 10.0 mi NW 10.4 mph 20.7 mph N/A Rain Rain
10:56 PM 67.6 °F - 62.4 °F 83% 29.76 in 10.0 mi WNW 11.5 mph 16.1 mph N/A Rain Rain
11:15 PM 66.4 °F - 63.7 °F 91% 29.77 in 7.0 mi West 3.5 mph - N/A Rain Rain
11:16 PM 66.4 °F - 63.7 °F 91% 29.77 in 7.0 mi West 3.5 mph - N/A Rain Rain
11:35 PM 65.7 °F - 63.5 °F 93% 29.76 in 7.0 mi WSW 4.6 mph - N/A Rain Rain
11:57 PM 65.3 °F - 63.7 °F 94% 29.76 in 7.0 mi West 3.5 mph - N/A Rain Rain